TimePDT,TemperatureF,Dew PointF,Humidity,Sea Level PressureIn,VisibilityMPH,Wind Direction,Wind SpeedMPH,Gust SpeedMPH,PrecipitationIn,Events,Conditions,WindDirDegrees,DateUTC
12:00 AM,44.6,39.2,81,29.94,30.0,Calm,Calm,-,N/A,,Clear,0,2012-10-08 07:00:00
1:00 AM,46.4,41.0,81,29.95,30.0,Calm,Calm,-,N/A,,Partly Cloudy,0,2012-10-08 08:00:00
2:00 AM,46.4,42.8,87,29.95,30.0,Calm,Calm,-,N/A,,Clear,0,2012-10-08 09:00:00
3:00 AM,44.6,41.0,87,29.95,30.0,Calm,Calm,-,N/A,,Clear,0,2012-10-08 10:00:00
4:00 AM,42.8,41.0,93,29.95,30.0,Calm,Calm,-,N/A,,Partly Cloudy,0,2012-10-08 11:00:00
5:00 AM,46,42,83,29.95,28,WNW,4.6,,,,Clear,290,2012-10-08 12:00:00
5:00 AM,46.4,42.8,87,29.95,30.0,West,3.5,-,N/A,,Partly Cloudy,270,2012-10-08 12:00:00
6:00 AM,44.6,42.8,93,29.95,30.0,West,3.5,-,N/A,,Partly Cloudy,270,2012-10-08 13:00:00
7:00 AM,42.8,41.0,93,29.95,30.0,West,3.5,-,N/A,,Partly Cloudy,280,2012-10-08 14:00:00
8:00 AM,42.8,41.0,93,29.97,30.0,Calm,Calm,-,N/A,,Scattered Clouds,0,2012-10-08 15:00:00
9:00 AM,51.8,46.4,82,29.97,30.0,West,5.8,-,N/A,,Partly Cloudy,270,2012-10-08 16:00:00
10:00 AM,57.2,46.4,67,29.97,30.0,Calm,Calm,-,N/A,,Partly Cloudy,0,2012-10-08 17:00:00
11:00 AM,60,47,52,29.98,28,Calm,Calm,,,,Clear,,2012-10-08 18:00:00
11:00 AM,60.8,46.4,59,29.98,30.0,Calm,Calm,-,N/A,,Scattered Clouds,0,2012-10-08 18:00:00
12:00 PM,64.4,46.4,52,29.98,30.0,Calm,Calm,-,N/A,,Scattered Clouds,0,2012-10-08 19:00:00
1:00 PM,64.4,46.4,52,29.97,30.0,East,2.3,-,N/A,,Scattered Clouds,90,2012-10-08 20:00:00
2:00 PM,66.2,46.4,49,29.96,30.0,ESE,5.8,-,N/A,,Partly Cloudy,110,2012-10-08 21:00:00
3:00 PM,66.2,46.4,49,29.95,30.0,ESE,5.8,-,N/A,,Partly Cloudy,120,2012-10-08 22:00:00
4:00 PM,66.2,46.4,49,29.94,30.0,ESE,4.6,-,N/A,,Partly Cloudy,110,2012-10-08 23:00:00
5:00 PM,62,47,48,29.94,28,East,3.5,,,,Clear,100,2012-10-09 00:00:00
5:00 PM,62.6,46.4,55,29.94,30.0,East,5.8,-,N/A,,Partly Cloudy,90,2012-10-09 00:00:00
6:00 PM,59.0,46.4,63,29.94,30.0,Calm,Calm,-,N/A,,Partly Cloudy,0,2012-10-09 01:00:00
7:00 PM,55.4,48.2,77,29.94,30.0,East,2.3,-,N/A,,Scattered Clouds,100,2012-10-09 02:00:00
8:00 PM,50.0,44.6,82,29.96,30.0,Calm,Calm,-,N/A,,Partly Cloudy,0,2012-10-09 03:00:00
9:00 PM,50.0,44.6,82,29.97,30.0,Calm,Calm,-,N/A,,Partly Cloudy,0,2012-10-09 04:00:00
10:00 PM,48.2,42.8,82,29.99,30.0,Calm,Calm,-,N/A,,Partly Cloudy,0,2012-10-09 05:00:00
11:00 PM,46,42,79,30.00,28,Calm,Calm,,,,Scattered Clouds,,2012-10-09 06:00:00
11:00 PM,46.4,41.0,81,30.00,30.0,Calm,Calm,-,N/A,,Partly Cloudy,0,2012-10-09 06:00:00